Regional Weather Roundup
Issued by NWS Charleston, WV

Home | Current Version | Previous Version | Text Only | Print | Product List | Glossary Off
Versions: 1 2 3 4 5 6 7 8 9 10 11 12 13 14 15 16 17 18 19 20 21 22 23 24 25 26 27 28 29 30 31 32 33 34 35 36 37 38 39 40 41 42 43 44 45 46 47 48 49 50

000
ASUS41 KRLX 020410
RWRRLX
West Virginia Regional Weather Roundup
National Weather Service Charleston WV
1200 AM EDT THU JUL 02 2015

Note: "fair" indicates few or no clouds below 12,000 feet with no
significant weather and/or obstructions to visibility.

WVZ003-020500-
Northern Panhandle of West Virginia

CITY           SKY/WX    TMP DP  RH WIND       PRES   REMARKS
WHEELING       PTCLDY    62  60  93 CALM      29.95S
$$

WVZ009-020500-
Northwest West Virginia

CITY           SKY/WX    TMP DP  RH WIND       PRES   REMARKS
PARKERSBURG    NOT AVBL
$$

WVZ006-020500-
Western West Virginia

CITY           SKY/WX    TMP DP  RH WIND       PRES   REMARKS
HUNTINGTON     MOCLDY    69  68  96 CALM      29.94R FOG
$$

WVZ015-020500-
West Central West Virginia

CITY           SKY/WX    TMP DP  RH WIND       PRES   REMARKS
CHARLESTON     RAIN      70  67  90 S7        29.95S FOG
$$

WVZ022-031-020500-
North Central West Virginia

CITY           SKY/WX    TMP DP  RH WIND       PRES   REMARKS
CLARKSBURG     CLEAR     62  60  93 CALM      29.96R FOG
MORGANTOWN     CLEAR     64  58  80 CALM      29.97R
$$

WVZ025-035-042-045-020500-
Southern West Virginia

CITY           SKY/WX    TMP DP  RH WIND       PRES   REMARKS
BECKLEY        LGT RAIN  66  63  90 S3        30.02S FOG
LOGAN          FOG       68  68 100 CALM      29.95S VSB 1
BLUEFIELD      CLOUDY    67  61  81 W8        30.05S
LEWISBURG      MOCLDY    67  65  93 CALM      30.01S FOG
$$

WVZ047-020500-
Northern Mountains of West Virginia

CITY           SKY/WX    TMP DP  RH WIND       PRES   REMARKS
ELKINS         CLEAR     59  57  93 CALM      30.01R FOG
$$

WVZ052-020500-
Eastern Panhandle of West Virginia

CITY           SKY/WX    TMP DP  RH WIND       PRES   REMARKS
MARTINSBURG    PTCLDY    66  60  81 CALM      29.94R
PETERSBURG     PTCLDY    63  58  86 CALM      29.97S
$$



USA.gov is the U.S. government's official web portal to all federal, state and local government web resources and services.